Simultaneous Nadir Overpasses (SNOs) Predictions

Prediction of SNOs between GOES-15 and METOP-B Satellite Orbit:

Table of predicted SNOs for the next 14.0 days since TLE Epoch: 2/19/2022
Index Date Time (GOES-15) GOES-15 Lat,Lon METOP-B Lat,Lon Distance(km) Time Diff (sec)
1 02/19/2022 18:00:34 0.02,-127.88 -0.14,-127.23 75.16 80
2 02/21/2022 06:16:53 -0.02,-127.79 -0.93,-131.82 458.62 80
3 02/22/2022 05:58:54 -0.02,-127.76 0.19,-126.82 106.73 80
4 02/23/2022 18:15:05 0.02,-127.74 0.82,-131.39 414.94 80
5 02/24/2022 17:57:06 0.02,-127.70 -0.30,-126.40 149.89 80
6 02/26/2022 06:13:25 -0.02,-127.60 -0.76,-130.99 385.45 80
7 02/27/2022 05:55:24 -0.02,-127.56 0.31,-125.98 179.07 80
8 02/28/2022 18:11:36 0.02,-127.53 0.70,-130.54 343.59 80
9 03/01/2022 17:53:36 0.03,-127.49 -0.42,-125.55 221.02 80
10 03/03/2022 06:09:56 -0.03,-127.38 -0.63,-130.14 314.19 80
11 03/04/2022 05:51:55 -0.03,-127.34 0.44,-125.14 250.40 80
